Volver al catálogo

COSMOS 1800

ActivoMilitarLEO
NORAD 17144·PAYLOAD·🇷🇺 Russia

Lanzado Nov 21, 1986 desde Plesetsk Cosmodrome

Loading…

Próximos Pases (próximas 24 horas)

TLE

ActualizadoSource: Space-Track

Época: Sep 14, 2026, 15:00 UTC

1 17144U 86092G   26257.62524616 -.00000006  00000-0  65363-4 0  9990
2 17144  74.0136 301.9703 0048241 311.8903 217.4255 12.57048018827039

Sigue COSMOS 1800 en tiempo real con AllMySat

Download on the App Store